UR3PDA-3 Weather Reports


time (UTC)temp
F
wind
direction
speed
knots
gust
knots
rain 1hr
in
rain 24hr
in
rain mn
in
humidity
%
barometer
mb
20260506154558 85 0.0 0.0 0.00 0.00 0.00 10 979.6
20260506153958 86 0.0 0.0 0.00 0.00 0.00 28 979.8
20260506153357 85 0.0 0.0 0.00 0.00 0.00 979.8
20260506152757 84 0.0 0.0 0.00 0.00 0.00 14 979.8
20260506152156 85 0.0 0.0 0.00 0.00 0.00 23 979.9
20260506151555 85 0.0 0.0 0.00 0.00 0.00 14 979.9
20260506150955 84 0.0 0.0 0.00 0.00 0.00 980.0
20260506150354 82 0.0 0.0 0.00 0.00 0.00 29 980.0
20260506145753 82 0.0 0.0 0.00 0.00 0.00 24 979.9
20260506145153 83 0.0 0.0 0.00 0.00 0.00 16 979.9
20260506144552 83 0.0 0.0 0.00 0.00 0.00 20 979.9
20260506143951 84 0.0 0.0 0.00 0.00 0.00 14 979.9
20260506143351 85 0.0 0.0 0.00 0.00 0.00 23 979.9
20260506142750 88 0.0 0.0 0.00 0.00 0.00 14 979.9
20260506142149 87 0.0 0.0 0.00 0.00 0.00 19 980.0
20260506141549 87 0.0 0.0 0.00 0.00 0.00 28 980.0
20260506140948 88 0.0 0.0 0.00 0.00 0.00 28 980.0
20260506140347 89 0.0 0.0 0.00 0.00 0.00 26 979.9
20260506135747 88 0.0 0.0 0.00 0.00 0.00 11 980.0
20260506135146 89 0.0 0.0 0.00 0.00 0.00 14 979.9
20260506134545 88 0.0 0.0 0.00 0.00 0.00 23 980.0
20260506133945 90 0.0 0.0 0.00 0.00 0.00 10 980.0
20260506133342 91 0.0 0.0 0.00 0.00 0.00 10 980.0
20260506132742 90 0.0 0.0 0.00 0.00 0.00 10 980.2
20260506132141 89 0.0 0.0 0.00 0.00 0.00 13 980.3
20260506131541 88 0.0 0.0 0.00 0.00 0.00 11 980.3
20260506130941 90 0.0 0.0 0.00 0.00 0.00 13 980.2
20260506130340 90 0.0 0.0 0.00 0.00 0.00 13 980.3
20260506125740 90 0.0 0.0 0.00 0.00 0.00 22 980.4
20260506125139 91 0.0 0.0 0.00 0.00 0.00 18 980.3
20260506124539 89 0.0 0.0 0.00 0.00 0.00 13 980.4
20260506123939 89 0.0 0.0 0.00 0.00 0.00 18 980.5
20260506123338 89 0.0 0.0 0.00 0.00 0.00 23 980.7
20260506122738 90 0.0 0.0 0.00 0.00 0.00 22 980.6
20260506122138 90 0.0 0.0 0.00 0.00 0.00 13 980.6
20260506121538 91 0.0 0.0 0.00 0.00 0.00 22 980.7
20260506120937 91 0.0 0.0 0.00 0.00 0.00 10 980.7
20260506120337 91 0.0 0.0 0.00 0.00 0.00 980.8
20260506115736 91 0.0 0.0 0.00 0.00 0.00 22 980.8
20260506115136 90 0.0 0.0 0.00 0.00 0.00 18 980.8
20260506114536 90 0.0 0.0 0.00 0.00 0.00 981.0
20260506113935 90 0.0 0.0 0.00 0.00 0.00 18 980.8
20260506113335 90 0.0 0.0 0.00 0.00 0.00 13 981.0
20260506112734 88 0.0 0.0 0.00 0.00 0.00 28 980.9
20260506112134 87 0.0 0.0 0.00 0.00 0.00 23 981.0
20260506111534 90 0.0 0.0 0.00 0.00 0.00 13 981.1
20260506110933 88 0.0 0.0 0.00 0.00 0.00 19 981.1
20260506110333 88 0.0 0.0 0.00 0.00 0.00 19 981.3
20260506105732 92 0.0 0.0 0.00 0.00 0.00 22 981.3
20260506105131 92 0.0 0.0 0.00 0.00 0.00 25 981.3
20260506104531 91 0.0 0.0 0.00 0.00 0.00 13 981.4
20260506103930 88 0.0 0.0 0.00 0.00 0.00 19 981.5
20260506103329 92 0.0 0.0 0.00 0.00 0.00 981.4
20260506102729 91 0.0 0.0 0.00 0.00 0.00 10 981.5
20260506102128 92 0.0 0.0 0.00 0.00 0.00 26 981.5
20260506101527 92 0.0 0.0 0.00 0.00 0.00 26 981.5
20260506100927 92 0.0 0.0 0.00 0.00 0.00 22 981.6
20260506100326 91 0.0 0.0 0.00 0.00 0.00 22 981.6
20260506095726 90 0.0 0.0 0.00 0.00 0.00 26 981.6
20260506095125 90 0.0 0.0 0.00 0.00 0.00 18 981.6
20260506094524 89 0.0 0.0 0.00 0.00 0.00 981.7
20260506093923 90 0.0 0.0 0.00 0.00 0.00 981.7
20260506093323 90 0.0 0.0 0.00 0.00 0.00 26 981.7
20260506092722 90 0.0 0.0 0.00 0.00 0.00 981.7
20260506092122 88 0.0 0.0 0.00 0.00 0.00 10 981.8
20260506091521 88 0.0 0.0 0.00 0.00 0.00 20 981.8
20260506090921 88 0.0 0.0 0.00 0.00 0.00 24 981.8
20260506090320 87 0.0 0.0 0.00 0.00 0.00 20 981.9
20260506085719 85 0.0 0.0 0.00 0.00 0.00 28 981.8
20260506085119 86 0.0 0.0 0.00 0.00 0.00 981.9
20260506084518 85 0.0 0.0 0.00 0.00 0.00 14 981.9
20260506083917 85 0.0 0.0 0.00 0.00 0.00 981.9
20260506083317 85 0.0 0.0 0.00 0.00 0.00 14 981.8
20260506082716 85 0.0 0.0 0.00 0.00 0.00 10 981.8
20260506082115 84 0.0 0.0 0.00 0.00 0.00 14 981.9
20260506081515 83 0.0 0.0 0.00 0.00 0.00 25 982.0
20260506080914 82 0.0 0.0 0.00 0.00 0.00 25 982.0
20260506080313 83 0.0 0.0 0.00 0.00 0.00 25 982.0
20260506073310 82 0.0 0.0 0.00 0.00 0.00 42 982.1
20260506072710 82 0.0 0.0 0.00 0.00 0.00 40 982.2
20260506072109 81 0.0 0.0 0.00 0.00 0.00 40 982.2
20260506071508 80 0.0 0.0 0.00 0.00 0.00 40 982.2
20260506070908 79 0.0 0.0 0.00 0.00 0.00 982.2
20260506070307 79 0.0 0.0 0.00 0.00 0.00 982.2
20260506062103 76 0.0 0.0 0.00 0.00 0.00 982.2
20260506061502 76 0.0 0.0 0.00 0.00 0.00 982.3
20260506060902 75 0.0 0.0 0.00 0.00 0.00 10 982.3
20260506060301 75 0.0 0.0 0.00 0.00 0.00 11 982.2
20260506050855 69 0.0 0.0 0.00 0.00 0.00 17 982.1
20260506050254 68 0.0 0.0 0.00 0.00 0.00 18 982.1
20260506045053 66 0.0 0.0 0.00 0.00 0.00 19 982.2
20260506044452 65 0.0 0.0 0.00 0.00 0.00 19 982.1
20260506043852 64 0.0 0.0 0.00 0.00 0.00 20 982.1
20260506043251 64 0.0 0.0 0.00 0.00 0.00 19 982.1
20260506042650 63 0.0 0.0 0.00 0.00 0.00 19 982.1
20260506042050 62 0.0 0.0 0.00 0.00 0.00 20 982.1
20260506041449 61 0.0 0.0 0.00 0.00 0.00 20 982.0
20260506040848 60 0.0 0.0 0.00 0.00 0.00 20 982.0
20260506040248 60 0.0 0.0 0.00 0.00 0.00 20 982.0
20260506035647 59 0.0 0.0 0.00 0.00 0.00 20 982.0
20260506035046 59 0.0 0.0 0.00 0.00 0.00 20 981.9
20260506034446 58 0.0 0.0 0.00 0.00 0.00 22 981.9
20260506033845 57 0.0 0.0 0.00 0.00 0.00 22 981.9
20260506033245 56 0.0 0.0 0.00 0.00 0.00 22 981.9
20260506032043 55 0.0 0.0 0.00 0.00 0.00 22 981.9
20260506031443 55 0.0 0.0 0.00 0.00 0.00 22 981.8
20260506030843 55 0.0 0.0 0.00 0.00 0.00 22 981.8
20260506030242 55 0.0 0.0 0.00 0.00 0.00 22 981.7
20260506025041 55 0.0 0.0 0.00 0.00 0.00 22 981.7
20260506024440 55 0.0 0.0 0.00 0.00 0.00 20 981.7
20260506023840 56 0.0 0.0 0.00 0.00 0.00 20 981.7
20260506023239 56 0.0 0.0 0.00 0.00 0.00 20 981.6
20260506022639 56 0.0 0.0 0.00 0.00 0.00 20 981.7
20260506022039 56 0.0 0.0 0.00 0.00 0.00 20 981.7
20260506021438 56 0.0 0.0 0.00 0.00 0.00 20 981.7
20260506020838 56 0.0 0.0 0.00 0.00 0.00 20 981.7
20260506020238 57 0.0 0.0 0.00 0.00 0.00 20 981.6
20260506015637 56 0.0 0.0 0.00 0.00 0.00 20 981.7
20260506015037 56 0.0 0.0 0.00 0.00 0.00 20 981.7
20260506014437 57 0.0 0.0 0.00 0.00 0.00 19 981.6
20260506013836 57 0.0 0.0 0.00 0.00 0.00 19 981.7
20260506013236 57 0.0 0.0 0.00 0.00 0.00 19 981.7
20260506012636 57 0.0 0.0 0.00 0.00 0.00 19 981.6
20260506012035 57 0.0 0.0 0.00 0.00 0.00 19 981.7
20260506011435 57 0.0 0.0 0.00 0.00 0.00 19 981.6
20260506010835 57 0.0 0.0 0.00 0.00 0.00 19 981.6
20260506010234 57 0.0 0.0 0.00 0.00 0.00 19 981.6
20260506005634 57 0.0 0.0 0.00 0.00 0.00 19 981.6
20260506005033 57 0.0 0.0 0.00 0.00 0.00 19 981.6
20260506004433 57 0.0 0.0 0.00 0.00 0.00 19 981.6
20260506003833 57 0.0 0.0 0.00 0.00 0.00 19 981.6
20260506003232 57 0.0 0.0 0.00 0.00 0.00 19 981.6
20260506002632 56 0.0 0.0 0.00 0.00 0.00 20 981.6
20260506002032 56 0.0 0.0 0.00 0.00 0.00 20 981.6
20260506001431 55 0.0 0.0 0.00 0.00 0.00 20 981.6
20260506000831 56 0.0 0.0 0.00 0.00 0.00 20 981.6
20260506000231 56 0.0 0.0 0.00 0.00 0.00 19 981.6
20260505235630 57 0.0 0.0 0.00 0.00 0.00 19 981.6
20260505235030 57 0.0 0.0 0.00 0.00 0.00 19 981.6
20260505234430 57 0.0 0.0 0.00 0.00 0.00 20 981.7
20260505233829 56 0.0 0.0 0.00 0.00 0.00 20 981.7
20260505233229 56 0.0 0.0 0.00 0.00 0.00 19 981.7
20260505232629 56 0.0 0.0 0.00 0.00 0.00 19 981.6
20260505232028 56 0.0 0.0 0.00 0.00 0.00 19 981.7
20260505231428 56 0.0 0.0 0.00 0.00 0.00 19 981.6
20260505230828 57 0.0 0.0 0.00 0.00 0.00 18 981.6
20260505230227 57 0.0 0.0 0.00 0.00 0.00 18 981.7
20260505225627 58 0.0 0.0 0.00 0.00 0.00 18 981.7
20260505225027 58 0.0 0.0 0.00 0.00 0.00 17 981.7
20260505224426 59 0.0 0.0 0.00 0.00 0.00 16 981.7
20260505223826 58 0.0 0.0 0.00 0.00 0.00 16 981.7
20260505223225 59 0.0 0.0 0.00 0.00 0.00 16 981.7
20260505222625 60 0.0 0.0 0.00 0.00 0.00 14 981.7
20260505222025 60 0.0 0.0 0.00 0.00 0.00 14 981.7
20260505221424 60 0.0 0.0 0.00 0.00 0.00 14 981.7
20260505220824 61 0.0 0.0 0.00 0.00 0.00 14 981.7
20260505220224 61 0.0 0.0 0.00 0.00 0.00 14 981.7
20260505215623 61 0.0 0.0 0.00 0.00 0.00 14 981.7
20260505215023 61 0.0 0.0 0.00 0.00 0.00 14 981.6
20260505214423 61 0.0 0.0 0.00 0.00 0.00 14 981.6
20260505213822 61 0.0 0.0 0.00 0.00 0.00 14 981.7
20260505213222 61 0.0 0.0 0.00 0.00 0.00 14 981.7
20260505212622 61 0.0 0.0 0.00 0.00 0.00 14 981.7
20260505212021 61 0.0 0.0 0.00 0.00 0.00 16 981.7
20260505211421 61 0.0 0.0 0.00 0.00 0.00 14 981.7
20260505210821 62 0.0 0.0 0.00 0.00 0.00 14 981.6
20260505210220 62 0.0 0.0 0.00 0.00 0.00 13 981.6
20260505205620 62 0.0 0.0 0.00 0.00 0.00 13 981.6
20260505205019 62 0.0 0.0 0.00 0.00 0.00 14 981.5
20260505204419 62 0.0 0.0 0.00 0.00 0.00 13 981.5
20260505203819 62 0.0 0.0 0.00 0.00 0.00 12 981.5
20260505203218 62 0.0 0.0 0.00 0.00 0.00 11 981.5
20260505202618 63 0.0 0.0 0.00 0.00 0.00 10 981.5
20260505202018 64 0.0 0.0 0.00 0.00 0.00 11 981.4
20260505201417 64 0.0 0.0 0.00 0.00 0.00 10 981.4
20260505200817 64 0.0 0.0 0.00 0.00 0.00 981.4
20260505200217 64 0.0 0.0 0.00 0.00 0.00 981.3
20260505195616 64 0.0 0.0 0.00 0.00 0.00 10 981.3
20260505195016 63 0.0 0.0 0.00 0.00 0.00 10 981.4
20260505194416 63 0.0 0.0 0.00 0.00 0.00 11 981.3
20260505193815 63 0.0 0.0 0.00 0.00 0.00 10 981.3
20260505193215 63 0.0 0.0 0.00 0.00 0.00 981.3
20260505192615 64 0.0 0.0 0.00 0.00 0.00 10 981.2
20260505192014 65 0.0 0.0 0.00 0.00 0.00 981.2
20260505191414 65 0.0 0.0 0.00 0.00 0.00 981.2
20260505190814 66 0.0 0.0 0.00 0.00 0.00 981.2
20260505190213 66 0.0 0.0 0.00 0.00 0.00 981.1
20260505185613 67 0.0 0.0 0.00 0.00 0.00 981.1
20260505185013 68 0.0 0.0 0.00 0.00 0.00 43 981.0
20260505184412 68 0.0 0.0 0.00 0.00 0.00 41 981.0
20260505183812 68 0.0 0.0 0.00 0.00 0.00 31 981.0
20260505183212 70 0.0 0.0 0.00 0.00 0.00 26 980.9
20260505182611 70 0.0 0.0 0.00 0.00 0.00 26 980.9
20260505182012 70 0.0 0.0 0.00 0.00 0.00 26 980.8
20260505181411 71 0.0 0.0 0.00 0.00 0.00 26 980.8
20260505180810 71 0.0 0.0 0.00 0.00 0.00 26 980.7
20260505180210 72 0.0 0.0 0.00 0.00 0.00 26 980.7
20260505175610 72 0.0 0.0 0.00 0.00 0.00 26 980.7
20260505175009 73 0.0 0.0 0.00 0.00 0.00 26 980.7
20260505174409 74 0.0 0.0 0.00 0.00 0.00 26 980.7
20260505173809 75 0.0 0.0 0.00 0.00 0.00 26 980.6
20260505173208 76 0.0 0.0 0.00 0.00 0.00 23 980.6
20260505172608 77 0.0 0.0 0.00 0.00 0.00 17 980.6
20260505172008 78 0.0 0.0 0.00 0.00 0.00 23 980.6
20260505171407 78 0.0 0.0 0.00 0.00 0.00 980.5
20260505170807 79 0.0 0.0 0.00 0.00 0.00 30 980.5
20260505170206 79 0.0 0.0 0.00 0.00 0.00 30 980.6
20260505165606 80 0.0 0.0 0.00 0.00 0.00 24 980.6
20260505165006 80 0.0 0.0 0.00 0.00 0.00 29 980.7
20260505164405 80 0.0 0.0 0.00 0.00 0.00 22 980.7
20260505163805 80 0.0 0.0 0.00 0.00 0.00 22 980.7
20260505163205 81 0.0 0.0 0.00 0.00 0.00 24 980.8
20260505162604 81 0.0 0.0 0.00 0.00 0.00 20 980.8
20260505162004 81 0.0 0.0 0.00 0.00 0.00 12 980.8
20260505161404 82 0.0 0.0 0.00 0.00 0.00 20 980.8
20260505160803 82 0.0 0.0 0.00 0.00 0.00 29 980.8
20260505160203 82 0.0 0.0 0.00 0.00 0.00 12 980.8